Location: *
(45.4667°S, 156.8333°W)
Time: 20:57:29
(UTC+00:00)

Daily predictions for brighter satellites

Satellite Brightness Start Highest point End
(mag) Time Altitude Azimuth Time Altitude Azimuth Time Altitude Azimuth
H-2A R/B 3.6 12:04:43 38° NE 12:06:05 65° ESE 12:10:07 10° S
SL-4 R/B 2.6 12:04:16 10° WSW 12:08:15 55° SSE 12:12:00 10° E
Lacrosse 5 rocket 4.2 12:08:22 10° SSW 12:10:08 13° S 12:11:54 10° SSE
Cosmos 1980 Rocket 3.3 12:07:38 22° NNE 12:10:18 34° ENE 12:15:20 10° SE
Cosmos 1441 Rocket 3.2 12:06:40 10° S 12:10:20 71° ESE 12:11:02 53° NE
CZ-2C R/B 3.9 12:07:12 10° SSE 12:12:19 35° E 12:15:45 18° NNE
Cosmos 1461 3.8 12:13:25 31° NE 12:14:12 34° ENE 12:17:56 10° SE
FENGYUN 3A 4.0 12:13:03 38° NW 12:14:38 49° W 12:19:56 10° SSW
Meteor 1-5 Rocket 4.2 12:10:06 10° SSW 12:15:23 59° W 12:17:14 38° NNW
Cosmos 1190 Rocket 4.2 12:10:47 10° SSW 12:16:09 71° ESE 12:20:17 17° NNE
Cosmos 2219 4.4 12:14:11 10° SSW 12:19:44 43° SE 12:25:13 10° NE
ATLAS 3B R/B 3.1 12:16:20 10° SW 12:21:56 36° WNW 12:23:26 32° NW
Cosmos 1812 Rocket 3.5 12:24:00 43° NNW 12:25:25 77° W 12:29:58 10° S
Cosmos 2221 2.7 12:24:58 35° NNE 12:26:35 64° E 12:30:52 10° SSE
Meteor 2-15 4.5 12:20:52 10° S 12:27:06 84° E 12:31:24 21° N
USA 229 DEB 3.6 12:24:48 10° SW 12:31:06 51° WNW 12:34:25 25° N
USA 229 3.6 12:24:52 10° SW 12:31:10 51° WNW 12:34:34 24° N
EXPRESS MD2 3.8 12:31:04 26° SSW 12:31:34 29° S 12:33:48 10° ESE
Tiangong -0.8 12:33:04 28° NE 12:33:04 28° NE 12:35:00 10° ENE
IDEFIX/ARIANE 42P 4.1 12:31:14 19° WNW 12:32:01 19° W 12:35:45 10° SW
Cosmos 1371 Rocket 4.1 12:30:32 32° N 12:32:58 71° ENE 12:38:12 10° SSE
Cosmos 2251 Rocket 3.6 12:30:19 10° SSW 12:35:33 57° WNW 12:38:06 29° N
Cosmos 972 Rocket 4.4 12:30:57 10° SSW 12:36:40 84° ESE 12:42:55 11° NNE
NOAA 11 4.1 12:34:09 23° N 12:37:45 82° WNW 12:43:20 10° SSW
Cosmos 1605 Rocket 4.0 12:36:10 10° SSW 12:42:24 70° W 12:46:27 23° N
ADEOS II 2.6 12:40:54 30° NW 12:42:45 40° W 12:47:45 10° SSW
Resurs 1-4 Rocket 3.2 12:41:29 24° WNW 12:42:45 27° W 12:47:15 10° SW
Cosmos 1743 3.8 12:40:44 10° SW 12:43:39 25° W 12:43:39 25° W
Lacrosse 5 4.3 12:41:04 10° SW 12:45:06 22° S 12:49:08 10° SE
SJ 16-02 3.5 12:44:08 10° S 12:47:53 27° ESE 12:51:35 10° ENE
BlueWalker 3 3.0 12:48:17 27° NNE 12:49:09 30° NE 12:52:30 10° ESE
Cosmos 1420 Rocket 4.2 12:46:48 29° NW 12:49:24 62° WSW 12:54:39 10° SSE
H-2A R/B 4.4 12:52:14 10° SSW 12:54:44 16° WSW 12:56:16 14° W
H-2A R/B 3.0 12:49:45 10° NE 12:54:52 49° ESE 12:59:54 10° S
Cosmos 1727 Rocket 4.1 12:51:05 18° N 12:55:52 77° E 13:02:17 10° S
Cosmos 2056 Rocket 3.6 12:53:41 27° NNW 12:56:35 74° WSW 13:02:00 10° SSE
SL-16 R/B 4.3 12:53:44 10° NE 12:57:36 19° E 13:01:30 10° SE
Cosmos 676 Rocket 4.0 12:52:28 10° SSW 12:57:53 85° WNW 13:03:13 10° NNE
USA 305 2.5 12:56:48 39° NNW 12:57:56 68° NE 13:01:52 10° ESE
BREEZE-M DEB (TANK) 4.4 12:58:32 17° NNE 12:58:53 17° NNE 13:01:00 10° E
Cosmos 1238 Rocket 4.1 12:59:57 19° W 13:00:41 20° WSW 13:03:27 10° SSW
ALOS 3.2 13:02:47 25° NW 13:04:18 31° W 13:08:26 10° SSW
Meteor 1-11 Rocket 4.2 13:01:40 10° S 13:07:43 68° ESE 13:13:37 10° NNE
Cosmos 2369 4.0 13:04:39 20° N 13:08:42 67° ENE 13:14:25 10° SSE
Meteor 1-14 Rocket 4.3 13:05:16 10° SSW 13:11:10 65° W 13:16:05 14° N
Cosmos 1459 Rocket 4.3 13:06:04 10° S 13:12:26 71° E 13:18:37 10° NNE
Envisat 3.5 13:09:37 22° NNW 13:12:29 42° W 13:17:23 10° SSW
USA 59 Rocket 2.3 13:05:29 10° SW 13:13:36 34° WNW 13:18:36 16° NNW
CZ-4 R/B 4.4 13:09:08 10° NNE 13:14:03 63° ESE 13:19:04 10° S
Meteor 2-6 Rocket 4.4 13:10:34 22° NNW 13:14:06 57° WSW 13:19:46 10° S
Meteor 1-27 Rocket 4.5 13:08:47 10° N 13:14:27 54° E 13:20:17 10° SSE
Cosmos 1346 Rocket 3.5 13:12:15 10° S 13:15:59 50° ESE 13:19:40 10° NNE
USA 184 4.2 12:59:22 17° NW 13:17:45 78° SW 13:24:45 10° SE
Cosmos 2263 Rocket 2.2 13:12:50 10° SSW 13:18:37 77° WNW 13:24:18 10° NNE
OAO 3 Rocket 4.4 13:17:57 21° NNW 13:19:09 23° N 13:23:01 10° NE
Cosmos 1733 3.8 13:17:02 10° SSW 13:20:03 31° W 13:21:03 25° NW
Meteor 2-10 4.2 13:19:14 10° SSW 13:24:15 54° W 13:28:43 13° N
CZ-2D R/B 4.0 13:22:55 12° WNW 13:24:16 13° W 13:26:35 10° WSW
USA 215 3.5 13:21:11 10° SE 13:27:47 65° NE 13:33:15 16° NW
USA 276 1.8 13:25:55 10° WSW 13:28:54 61° NNW 13:31:41 10° NE
CZ-2C R/B 2.3 13:27:55 10° N 13:32:29 66° WNW 13:37:14 10° SSW
Cosmos 1725 Rocket 4.4 13:27:23 10° S 13:33:46 68° E 13:40:00 10° NNE
Cosmos 2123 Rocket 4.2 13:29:06 10° N 13:35:16 76° E 13:41:33 10° S
Cosmos 1356 Rocket 3.9 13:32:15 10° N 13:36:08 54° E 13:40:00 10° SSE
Cosmos 1766 Rocket 4.2 13:32:10 10° SSW 13:36:14 38° W 13:39:25 15° NNW
Cosmos 2297 Rocket 4.0 13:34:34 10° WSW 13:36:34 12° W 13:37:45 11° WNW
YAOGAN 6 2.0 13:35:08 10° NNE 13:38:06 90° E 13:41:08 10° SSW
SL-12 R/B(2) 4.1 13:32:22 10° SW 13:40:44 65° WNW 13:48:01 10° NNE
Cosmos 1697 Rocket 4.1 13:36:22 11° WNW 13:40:55 27° SW 13:45:43 10° S
Cosmos 1400 Rocket 3.4 13:38:28 18° NW 13:40:56 38° WSW 13:44:38 10° S
Cosmos 1110 Rocket 4.0 13:36:31 14° NNW 13:41:05 90° ENE 13:46:24 10° SSE
USA 306 1.8 13:40:54 25° N 13:41:31 32° NE 13:43:01 10° ESE
Cosmos 2100 Rocket 4.1 13:36:33 10° SSW 13:42:48 65° W 13:49:02 10° N
Cosmos 2227 Rocket 3.4 13:41:39 10° SW 13:45:53 22° W 13:49:19 13° NW
SL-4 R/B 2.3 13:42:51 10° WSW 13:46:25 35° NW 13:49:47 10° NNE
SL-16 R/B 4.1 13:41:23 10° SSE 13:46:56 32° E 13:52:24 10° NNE
Lacrosse 5 rocket 3.6 13:46:04 10° SSW 13:48:57 23° SSE 13:51:48 10° E
USA 307 3.3 13:47:23 14° N 13:49:05 28° NE 13:51:53 10° ESE
Cosmos 1844 Rocket 4.1 13:43:58 10° SSW 13:49:27 44° ESE 13:54:52 10° NE
Cosmos 1461 4.2 13:48:21 11° WNW 13:51:49 30° SW 13:55:28 10° SSE
Cosmos 1536 3.8 13:49:13 10° SSW 13:52:28 27° W 13:55:11 13° NW
CZ-2C R/B 3.5 13:47:25 10° S 13:52:32 37° WSW 13:57:12 12° NW
Cosmos 1980 Rocket 3.0 13:49:24 13° WNW 13:54:10 41° SW 13:59:32 10° SSE
Cosmos 1607 4.2 13:49:02 10° NNW 13:55:05 65° ENE 14:01:17 10° SE
Blok-2BL 4.5 13:58:38 10° WSW 13:59:36 14° WNW 13:59:36 14° WNW
Cosmos 1674 2.2 13:56:54 10° N 14:00:01 82° E 14:03:13 10° S
Cosmos 1766 3.8 13:57:34 10° S 14:01:09 56° E 14:04:42 10° NNE
USA 267 3.7 13:54:55 10° ENE 14:01:27 69° SSE 14:08:01 10° SW
Cosmos 2278 4.0 13:57:14 10° NNW 14:02:53 70° ENE 14:08:36 10° SSE
Cosmos 1500 Rocket 3.6 13:58:23 10° S 14:02:56 89° WNW 14:07:23 10° N
Cosmos 2219 4.0 13:58:36 10° SW 14:03:44 33° WNW 14:08:48 10° NNW
Cosmos 1315 Rocket 3.2 14:00:03 10° N 14:03:50 60° E 14:07:41 10° SSE
Meteor 1-28 Rocket 4.3 14:01:45 10° SSE 14:05:05 39° E 14:08:22 10° N
Cosmos 1842 Rocket 4.4 14:02:48 11° NW 14:06:44 35° WSW 14:10:55 10° S
Okean 3 Rocket 4.2 14:02:32 10° SSW 14:06:48 39° W 14:11:01 10° NNW
Tiangong -0.9 14:05:47 10° WNW 14:08:35 26° NNW 14:11:22 10° NE
Cosmos 1741 Rocket 4.2 14:04:08 10° SSW 14:09:20 56° WNW 14:14:31 10° N
Cosmos 1484 Rocket 3.3 14:09:38 10° NNE 14:13:09 57° ESE 14:16:41 10° S
Cosmos 2333 Rocket 3.4 14:09:28 10° N 14:14:51 41° ENE 14:20:17 10° SE
Cosmos 1908 4.3 14:16:24 10° S 14:19:43 42° ESE 14:22:58 10° NNE
Thor Agena Rocket 3.6 14:16:35 10° NNE 14:21:54 80° WNW 14:27:17 10° SSW
Cosmos 1844 4.1 14:19:28 10° SSW 14:25:06 71° ESE 14:30:41 10° NNE
Cosmos 371 Rocket 3.4 14:20:21 10° SSW 14:25:15 84° ESE 14:30:05 10° NNE
SJ 16-02 2.1 14:22:13 10° SW 14:26:08 32° W 14:30:01 10° NNW
Cosmos 1452 Rocket 4.1 14:21:50 10° NW 14:26:51 44° WSW 14:31:57 10° S
